Wind_Speed
37 37 37 38 38 38 38 39 38 38 37 38 37 37 37 37 37 38 38 37 37 37 35 35 35 35 35 34 35 35 35 35 35 35 35 34 34 34 34 33 33 33 33
39 39 39 39 39 39 39 40 40 39 39 39 38 38 38 37 38 38 38 38 37 37 36 36 35 35 36 36 36 37 37 37 37 37 36 36 36 35 34 34 34 34 34
39 39 40 41 41 41 41 40 40 40 40 40 39 38 38 37 37 37 38 37 37 37 37 37 37 36 37 37 37 37 37 37 37 38 38 37 37 36 35 35 35 35 34
39 40 39 40 42 42 42 42 41 40 41 41 40 39 38 38 37 37 37 37 37 37 37 37 37 38 38 38 38 38 38 38 38 37 37 37 36 36 36 35 35 35 35
39 40 40 40 41 42 42 43 43 42 41 40 40 39 38 38 38 37 37 37 37 37 37 37 37 38 39 39 38 38 38 37 37 37 37 37 37 36 36 36 36 36 36
40 39 39 39 40 41 42 42 42 42 41 40 39 39 38 38 38 38 38 38 38 38 38 38 38 38 39 39 38 38 38 37 36 36 37 37 37 37 36 36 37 36 36
42 41 40 39 38 40 41 41 41 40 40 40 40 39 39 39 39 39 39 40 39 40 40 39 39 38 38 39 38 38 38 38 37 37 37 36 36 37 37 36 36 35 35
41 40 40 39 39 39 39 40 40 39 39 40 40 40 39 39 39 40 40 40 41 41 41 41 40 40 40 39 39 39 39 39 39 38 38 37 36 36 36 36 36 35 35
40 40 40 40 40 40 39 39 39 39 39 40 41 41 40 40 40 39 40 41 41 41 42 42 41 41 41 41 41 40 40 39 40 39 38 37 37 36 35 36 36 36 37
41 41 40 40 40 41 40 39 40 40 39 39 40 40 40 40 40 39 39 40 41 41 41 41 41 41 40 40 41 41 41 41 40 40 39 37 37 36 36 36 36 36 36
41 41 40 39 39 40 40 39 39 38 38 38 38 38 38 38 39 39 38 38 39 39 40 41 41 40 39 39 40 40 40 40 40 39 39 38 37 36 37 37 36 36 37
40 40 39 39 39 39 40 39 37 37 37 37 37 37 37 37 37 38 38 38 39 39 39 40 40 39 38 38 39 39 40 39 39 38 38 38 38 37 37 37 37 37 37
39 39 40 40 40 40 39 39 37 37 36 36 36 36 37 37 37 37 38 38 38 38 38 39 38 37 37 38 38 39 40 40 39 37 37 37 37 37 37 37 37 37 38
39 40 40 40 39 39 39 38 37 37 36 35 35 36 36 36 37 37 37 37 36 36 37 36 35 35 36 37 38 39 40 38 37 36 37 37 37 37 37 37 37 38 38
38 40 41 40 40 39 38 37 38 37 36 35 34 35 36 37 36 36 36 37 37 35 34 34 34 35 36 36 36 37 37 36 35 35 37 38 38 37 38 37 38 38 38
37 38 39 39 38 37 37 37 36 36 35 35 34 35 36 37 37 36 37 37 37 35 34 34 34 35 35 35 35 35 35 35 35 34 35 35 37 37 36 36 36 36 36
35 36 37 37 37 37 37 37 36 36 36 35 35 35 36 36 35 36 36 35 35 35 35 34 34 35 34 35 35 34 34 34 33 33 33 34 35 34 34 33 34 35 35
32 34 34 35 36 36 36 36 36 37 37 36 35 34 35 35 34 34 34 34 34 34 34 33 34 33 33 34 33 33 33 33 33 32 31 32 33 32 31 31 32 33 33
32 33 33 34 35 35 35 36 36 36 36 36 34 34 34 34 33 33 33 33 33 34 33 33 33 33 32 32 31 31 31 31 31 31 31 32 32 31 31 31 30 32 33
31 32 32 33 34 35 35 35 35 35 36 35 34 33 33 34 33 33 32 32 32 32 32 32 32 32 32 32 30 30 29 29 29 30 30 31 31 31 31 31 31 32 32
30 31 32 33 33 34 34 35 35 34 34 35 34 33 32 32 32 31 31 31 32 31 31 32 32 31 31 31 30 30 29 28 28 29 29 29 30 30 30 31 31 31 31
30 32 32 32 32 33 33 33 34 34 33 34 33 32 31 30 30 31 31 31 31 32 32 32 31 31 30 30 30 30 29 29 30 29 29 29 30 30 30 30 30 30 30
31 31 31 32 32 33 33 33 33 33 33 33 32 31 31 30 29 30 30 31 31 32 32 31 31 31 30 29 29 29 28 29 30 29 29 28 29 29 29 29 29 29 29
31 31 31 32 32 32 31 32 32 31 31 31 30 30 30 30 30 29 30 30 30 31 31 32 31 31 30 29 28 28 28 28 29 29 29 29 29 29 29 29 28 27 27
31 31 31 31 30 29 29 29 29 29 29 29 29 29 29 29 28 28 29 29 29 29 31 32 31 31 31 29 28 28 29 29 29 28 28 28 28 28 28 28 27 27 26
28 28 27 26 25 25 25 26 26 26 26 26 26 26 27 28 27 27 28 28 28 28 28 29 30 30 30 29 28 27 28 28 28 27 27 27 27 27 27 26 27 27 25
Wind_Direction
263 263 262 262 261 261 262 264 265 266 267 267 267 268 268 268 268 268 268 268 270 270 271 272 274 274 275 276 277 277 278 277 276 276 276 278 280 281 281 281 283 284 284
262 262 263 263 262 263 263 263 264 265 266 266 267 268 268 268 268 268 268 268 269 270 271 272 273 274 275 275 275 276 277 278 276 275 275 277 279 280 281 281 282 283 283
261 262 263 263 264 264 264 265 265 265 265 266 266 267 267 267 268 268 268 267 268 270 271 272 272 273 275 276 276 276 276 277 277 276 275 275 277 280 280 281 282 282 282
261 262 263 264 264 264 265 265 265 266 266 266 266 265 266 267 266 267 267 268 268 270 271 272 272 273 274 275 275 275 275 276 277 276 275 276 278 279 280 280 281 281 282
262 263 264 266 266 266 266 266 265 266 266 266 266 266 266 267 267 267 267 268 269 270 271 272 273 274 274 274 274 274 274 275 275 275 275 276 277 278 279 280 279 280 280
262 264 266 267 268 268 267 267 267 266 266 266 265 265 265 267 267 267 268 269 269 270 272 273 274 274 274 273 273 273 274 275 275 274 275 276 276 277 279 279 278 279 279
262 264 266 267 268 268 267 267 267 266 266 265 264 264 265 266 266 268 269 269 269 270 272 273 274 273 274 274 273 273 274 274 275 275 276 276 276 277 278 279 279 279 279
263 264 265 266 266 267 268 268 268 265 265 265 265 265 265 266 267 267 268 269 270 270 271 272 273 273 273 274 274 274 274 274 274 274 275 275 276 276 277 277 278 279 279
262 262 262 263 265 266 267 269 267 266 267 266 266 265 265 266 267 268 268 269 270 271 271 271 272 272 273 273 274 273 274 275 275 273 274 274 275 275 276 277 277 278 279
261 261 262 262 263 265 267 269 267 266 267 266 265 266 267 267 267 268 268 268 268 269 270 271 272 272 272 273 273 272 272 274 274 272 272 272 272 274 275 277 277 276 277
260 260 261 262 264 265 267 268 268 266 265 265 265 266 267 269 268 268 268 269 269 270 270 271 272 272 272 274 273 272 273 273 273 271 270 271 271 273 275 277 276 276 277
260 259 260 262 264 265 267 269 270 266 265 265 265 267 268 268 269 268 269 269 270 270 270 271 271 271 272 274 275 274 274 273 272 270 269 269 270 272 274 276 276 277 279
259 259 259 261 264 265 266 267 269 267 266 265 265 266 268 268 268 269 269 270 271 271 270 270 270 271 272 273 275 276 275 272 271 269 268 269 270 271 273 275 276 278 279
260 260 260 261 263 262 263 266 268 267 266 266 265 266 267 268 267 267 269 271 272 272 271 270 269 270 272 274 276 277 275 272 270 268 268 269 270 271 273 275 276 277 279
262 261 261 261 261 261 263 265 266 265 267 266 266 265 267 268 267 268 269 271 272 272 271 270 268 269 272 274 276 276 274 271 270 270 270 269 272 273 274 275 275 276 278
262 261 262 262 260 262 263 264 265 266 266 266 266 266 267 268 267 269 270 271 271 271 271 271 269 269 271 274 274 275 274 273 272 271 270 272 273 273 275 276 275 276 279
263 264 262 260 260 263 263 264 264 265 266 266 268 268 268 268 268 269 269 270 270 272 273 270 268 269 270 272 273 275 276 274 272 271 271 272 272 274 276 276 276 277 280
265 266 263 261 261 262 264 264 265 267 268 269 269 269 269 267 267 267 268 267 270 272 271 267 266 268 271 272 275 276 276 274 272 270 272 271 272 272 275 276 277 280 283
267 266 264 263 263 264 266 266 267 268 269 270 269 269 267 267 265 265 266 267 268 269 269 268 267 268 271 274 274 276 277 274 272 271 272 272 271 271 273 275 278 280 283
269 268 267 267 267 267 267 266 267 268 268 269 269 270 267 266 264 263 265 266 267 268 268 268 268 269 271 273 274 275 276 275 273 272 271 269 268 269 272 275 278 281 283
271 270 269 268 267 268 268 266 265 267 268 268 268 268 267 266 263 262 265 266 266 267 268 268 269 271 272 273 274 276 276 274 272 271 270 268 267 268 271 274 278 281 282
272 271 270 270 270 269 267 267 266 267 267 268 267 266 266 265 262 263 266 266 266 266 267 269 270 271 274 274 274 276 276 273 271 271 270 268 268 269 271 274 277 280 281
274 272 272 273 273 271 269 267 266 267 267 267 265 265 265 264 264 264 265 267 268 266 267 268 269 271 273 274 274 274 272 271 272 270 269 268 270 271 274 277 279 280 280
274 275 275 277 277 274 270 268 267 267 266 266 265 264 263 264 265 266 267 267 267 266 265 265 266 268 270 272 272 272 270 273 273 271 270 269 271 274 275 277 279 280 280
275 275 275 277 276 273 269 267 266 266 265 264 265 264 263 264 264 266 267 268 268 267 265 264 265 267 268 270 269 270 272 272 272 270 271 270 271 274 276 277 277 277 278
275 275 275 275 274 272 268 266 266 267 265 264 264 263 261 261 260 262 265 267 268 267 266 266 267 268 269 270 270 269 270 271 269 268 270 272 273 274 276 276 275 275 278
Height
5778 5778 5779 5780 5781 5781 5781 5782 5783 5783 5783 5783 5783 5783 5783 5783 5783 5783 5783 5783 5783 5782 5782 5782 5781 5780 5780 5779 5778 5777 5776 5775 5774 5773 5772 5770 5769 5768 5766 5765 5763 5762 5760
5768 5769 5770 5770 5771 5771 5772 5773 5773 5773 5774 5774 5774 5774 5773 5773 5773 5773 5773 5774 5774 5773 5773 5772 5772 5772 5771 5770 5769 5768 5767 5766 5765 5764 5763 5762 5761 5760 5758 5757 5755 5754 5752
5758 5759 5760 5760 5761 5761 5762 5763 5763 5763 5763 5763 5764 5764 5764 5763 5763 5763 5763 5764 5764 5764 5763 5763 5763 5762 5761 5760 5760 5759 5758 5757 5756 5755 5754 5753 5752 5751 5750 5748 5747 5746 5744
5748 5749 5749 5750 5751 5751 5751 5752 5753 5753 5754 5754 5754 5754 5754 5754 5754 5754 5754 5754 5754 5754 5753 5753 5753 5752 5752 5751 5750 5750 5749 5748 5747 5746 5745 5745 5743 5742 5741 5740 5738 5737 5736
5738 5739 5739 5740 5740 5740 5741 5741 5742 5743 5743 5744 5744 5744 5745 5744 5744 5744 5744 5744 5744 5744 5743 5743 5742 5742 5742 5741 5740 5740 5739 5738 5738 5737 5736 5735 5734 5733 5732 5731 5730 5728 5727
5728 5729 5729 5730 5729 5730 5730 5730 5731 5732 5732 5733 5733 5734 5734 5734 5734 5734 5734 5733 5733 5733 5733 5732 5732 5732 5731 5731 5730 5730 5729 5729 5728 5727 5727 5726 5725 5724 5723 5722 5721 5719 5718
5718 5719 5719 5719 5719 5719 5719 5719 5720 5721 5721 5722 5723 5723 5724 5723 5724 5723 5723 5722 5722 5722 5722 5721 5721 5721 5721 5721 5720 5720 5719 5719 5718 5718 5717 5717 5716 5715 5714 5713 5712 5711 5709
5707 5708 5709 5709 5709 5709 5709 5709 5710 5710 5711 5711 5712 5712 5713 5714 5712 5712 5712 5711 5711 5711 5710 5710 5710 5710 5710 5710 5710 5709 5709 5708 5708 5708 5708 5707 5706 5705 5705 5704 5703 5702 5700
5697 5698 5698 5699 5699 5699 5699 5699 5699 5699 5700 5699 5700 5701 5701 5702 5703 5702 5701 5700 5700 5699 5699 5698 5698 5698 5698 5698 5699 5698 5698 5698 5697 5697 5697 5697 5697 5696 5695 5695 5693 5692 5691
5686 5687 5688 5688 5689 5689 5689 5689 5688 5688 5688 5688 5688 5689 5689 5690 5690 5692 5691 5689 5688 5688 5687 5687 5687 5687 5687 5687 5687 5687 5687 5686 5686 5686 5686 5687 5687 5686 5686 5685 5684 5683 5681
5675 5676 5677 5678 5678 5679 5679 5678 5678 5677 5677 5677 5678 5678 5678 5678 5678 5679 5680 5679 5678 5677 5676 5676 5676 5676 5676 5676 5675 5675 5675 5675 5674 5675 5675 5676 5676 5676 5676 5675 5674 5673 5672
5664 5665 5667 5668 5668 5668 5668 5668 5667 5667 5667 5667 5667 5667 5668 5668 5667 5667 5668 5668 5668 5667 5666 5665 5666 5666 5666 5666 5665 5664 5663 5663 5663 5664 5665 5665 5666 5666 5665 5665 5664 5663 5662
5654 5655 5656 5657 5657 5658 5658 5658 5658 5657 5657 5657 5657 5657 5657 5657 5657 5657 5657 5657 5657 5657 5656 5656 5656 5656 5656 5656 5655 5654 5652 5652 5652 5653 5654 5655 5655 5655 5655 5655 5654 5653 5651
5644 5644 5645 5646 5646 5647 5648 5648 5648 5648 5647 5647 5647 5647 5647 5647 5647 5647 5647 5647 5647 5647 5647 5647 5647 5647 5647 5646 5645 5644 5642 5642 5642 5643 5644 5645 5645 5645 5645 5644 5643 5642 5640
5633 5633 5634 5635 5635 5637 5637 5638 5638 5638 5637 5637 5637 5637 5637 5637 5637 5637 5637 5637 5638 5638 5638 5638 5638 5638 5638 5637 5636 5635 5634 5633 5632 5633 5634 5634 5634 5634 5634 5633 5632 5631 5629
5622 5623 5623 5624 5625 5626 5627 5627 5628 5628 5628 5628 5628 5628 5628 5627 5627 5627 5627 5627 5627 5628 5629 5629 5629 5629 5628 5628 5627 5626 5625 5624 5624 5624 5625 5624 5624 5624 5623 5622 5621 5620 5619
5612 5613 5613 5614 5615 5616 5617 5617 5618 5618 5618 5618 5618 5618 5618 5618 5617 5617 5617 5617 5618 5619 5619 5620 5620 5620 5619 5619 5618 5617 5616 5615 5615 5615 5615 5615 5615 5614 5613 5612 5612 5611 5609
5603 5603 5603 5604 5605 5606 5607 5608 5608 5608 5608 5608 5608 5608 5608 5608 5608 5608 5608 5608 5609 5610 5611 5611 5611 5611 5611 5610 5610 5609 5608 5607 5607 5606 5606 5605 5605 5604 5604 5603 5602 5602 5600
5594 5594 5594 5595 5596 5597 5597 5598 5598 5598 5598 5599 5599 5599 5599 5599 5599 5599 5599 5600 5600 5601 5601 5602 5602 5603 5603 5602 5602 5601 5599 5598 5598 5597 5597 5596 5596 5595 5595 5595 5594 5593 5591
5585 5585 5585 5586 5586 5587 5587 5587 5588 5588 5588 5589 5589 5589 5589 5589 5590 5590 5591 5591 5592 5592 5593 5593 5594 5594 5594 5594 5593 5593 5592 5591 5590 5589 5588 5588 5587 5587 5587 5586 5585 5584 5582
5576 5576 5576 5576 5576 5576 5577 5577 5578 5578 5579 5579 5579 5579 5580 5580 5581 5582 5582 5583 5583 5584 5584 5585 5585 5586 5585 5585 5585 5584 5583 5583 5582 5581 5580 5580 5580 5579 5578 5577 5576 5575 5573
5567 5567 5566 5566 5566 5566 5566 5567 5568 5568 5569 5569 5570 5571 5571 5571 5572 5573 5574 5574 5575 5576 5576 5576 5577 5577 5577 5576 5576 5576 5575 5575 5575 5574 5573 5572 5572 5571 5570 5569 5567 5566 5565
5558 5557 5557 5557 5556 5556 5556 5557 5557 5558 5559 5560 5561 5562 5562 5563 5563 5564 5565 5566 5566 5566 5567 5568 5568 5568 5568 5568 5568 5567 5566 5566 5566 5565 5565 5565 5564 5563 5562 5560 5559 5558 5556
5549 5549 5548 5548 5547 5547 5547 5547 5548 5548 5549 5550 5551 5552 5553 5554 5555 5556 5557 5557 5557 5558 5558 5559 5559 5559 5559 5558 5558 5558 5558 5558 5557 5556 5556 5557 5557 5556 5555 5552 5550 5549 5547
5541 5540 5539 5538 5538 5538 5538 5538 5539 5539 5540 5542 5543 5544 5545 5546 5547 5547 5548 5549 5549 5549 5549 5550 5550 5550 5550 5550 5550 5550 5549 5550 5549 5549 5548 5548 5548 5548 5547 5544 5542 5541 5539
5532 5531 5531 5530 5530 5530 5530 5530 5531 5531 5533 5534 5534 5535 5536 5537 5538 5539 5540 5541 5541 5542 5542 5541 5541 5541 5541 5542 5541 5541 5541 5541 5540 5540 5540 5540 5540 5539 5539 5537 5535 5534 5532